Location: Karcze
(52.0945°N, 22.4786°E)
Time: 01:53:48
(UTC+00:00)

Transit 2A Rocket - Pass Details

Date: 28 July 2021
Orbit: 586 x 917 km, 66.7° (Epoch: 27 September)

Event Time Altitude Azimuth Distance (km) Brightness Sun altitude
Rises 20:12:03 0° 320° (NW) 3,146 10.3 -12.5°
Reaches altitude 10° 20:14:32 10° 330° (NNW) 2,277 9.0 -12.7°
Maximum altitude 20:19:19 35° 36° (NE) 1,284 6.4 -13.1°
Drops below altitude 10° 20:24:29 10° 101° (E) 2,468 7.2 -13.5°
Enters shadow 20:25:00 - 103° (ESE) 2,643 7.4 -13.6°
Sets 20:27:16 0° 110° (ESE) 3,447 - -13.7°
